Location: Newark
(43.4306°N, 0.3089°E)
Time: 13:11:15
(UTC+00:00)

Vanguard 3 - Pass Details

Date: 30 August 2019
Orbit: 508 x 3263 km, 33.4° (Epoch: 22 September)

Event Time Altitude Azimuth Distance (km) Brightness Sun altitude
Rises 13:01:47 0° 219° (SW) 6,946 12.5 53.0°
Reaches altitude 10° 13:07:40 10° 211° (SSW) 5,614 12.3 52.5°
Maximum altitude 13:20:13 30° 159° (SSE) 3,271 11.0 51.3°
Drops below altitude 10° 13:28:35 10° 104° (ESE) 3,696 10.5 50.4°
Sets 13:31:31 0° 93° (E) 4,327 10.7 50.1°
